Greenville, SC

8:06 PM EST on December 22, 2014 (GMT -0500)
AG Farms Cherrydale | Change Station
CLOSE
Current Station
Personal Weather Station
Location: Greenville, SC
Elevation: 1001 ft
Nearby Weather Stations

Elev 1001 ft 34.88 °N, 82.41 °W | Updated 10 minutes ago

Rain
Rain
40.1 °F
Feels Like 38 °F
N
3.2
Wind Variable Wind from East

Today
High -- | Low -- °F
--% Chance of Precip.
Yesterday
High -- | Low -- °F
Precip. -- in
7:33 AM 5:22 PM
New Moon, 1% visible
Pressure 30.03 in
Visibility 6.0 miles
Clouds Overcast 400 ft
Windchill 38 °F
Dew Point 40 °F
Humidity 99%
Rainfall 0.05 in
Snow Depth Not available.
UV 0 out of 12
Pollen 1.00 out of 12
Air Quality Not available.
Flu Activity Not available.
METAR KGMU 230053Z 05007KT 6SM -RA BR OVC004 04/03 A3001 RMK AO2 RAE08B36 SLP167 P0000 T00440033

More Conditions Fewer Conditions

Pressure 30.03 in
Visibility 6.0 miles
Clouds Overcast 400 ft
Windchill 38 °F
Dew Point 40 °F
Humidity 99%
Rainfall 0.05 in
Snow Depth Not available.
UV 0 out of 12
Pollen 1.00 out of 12
Air Quality Not available.
Flu Activity Not available.
METAR KGMU 230053Z 05007KT 6SM -RA BR OVC004 04/03 A3001 RMK AO2 RAE08B36 SLP167 P0000 T00440033

More Conditions Fewer Conditions

10-Day Weather Forecast

Almanac

Astronomy

Dec. 22, 2014 Rise Set
Actual Time
Civil Twilight
Nautical Twilight
Astronomical Twilight
Moon
Length of Visible Light
Length of Day
Tomorrow will be .
, % of the Moon is Illuminated

Today's Extremes

State Highs State Lows

Community

WunderPhotos

Upload Photos

1,779,742 photos uploaded!

WunderBlogs® & News

Nearby

Air Quality

  Air Quality AQ Index Pollutant
Not available.

Snow Depth

Station Depth Elevation

Earthquake Activity

City Distance Mag. Time & Date
Minimum magnitude displayed is 2.5.

Coastal Water Temperatures

Place Temperature

Nearby Weather Stations